Regional Weather Roundup
Issued by NWS Cleveland, OH

Home | Current Version | Previous Version | Text Only | Print | Product List | Glossary Off
Versions: 1 2 3 4 5 6 7 8 9 10 11 12 13 14 15 16 17 18 19 20 21 22 23 24 25 26 27 28 29 30 31 32 33 34 35 36 37 38 39 40 41 42 43 44 45 46 47 48 49 50

000
ASUS41 KCLE 260202
RWRCLE
OHIO REGIONAL WEATHER ROUNDUP
NATIONAL WEATHER SERVICE CLEVELAND, OH
1000 PM EDT MON JUL 25 2016

NOTE: "FAIR" INDICATES FEW OR NO CLOUDS BELOW 12,000 FEET WITH NO
SIGNIFICANT WEATHER AND/OR OBSTRUCTIONS TO VISIBILITY.

OHZ001>008-015>018-024>027-034-035-043-044-260300-
   NORTHWEST OHIO

CITY           SKY/WX    TMP DP  RH WIND       PRES   REMARKS
DEFIANCE       PTCLDY    79  64  60 NW5       29.99R
FINDLAY        CLOUDY    80  66  62 NW3       29.97R
TOLEDO EXPRESS CLEAR     78  68  71 W7        29.97R
TOLEDO EXEC    CLEAR     79  68  69 W7        29.97R
LIMA           PTCLDY    75  71  87 W7        30.00R
$$

OHZ009>014-019>023-028>033-038-089-260300-
   NORTHEAST OHIO

CITY           SKY/WX    TMP DP  RH WIND       PRES   REMARKS
CLE-HOPKINS    PTCLDY    80  67  64 W3        29.98R
CLE-LAKEFRONT  CLEAR     80  72  76 W6        29.94R
CUY CO. ARPT   PTCLDY    81  72  74 W7        29.97R
LORAIN-ELYRIA  CLEAR     77  68  73 W5        29.97R
ASHTABULA      CLEAR     73  69  87 CALM      29.97R
AKRON-CANTON   MOCLDY    77  67  71 NW5       29.99R
WOOSTER        PTCLDY    76  67  73 N5        29.99R
MANSFIELD      PTCLDY    78  69  73 NW3       30.00R
YOUNGSTOWN     MOCLDY    77  68  73 NW3       29.98R
$$

OHZ042-051>053-060>062-070>072-077>081-260300-
  SOUTHWEST OHIO

CITY           SKY/WX    TMP DP  RH WIND       PRES   REMARKS
CINC-COVINGTON CLOUDY    79  76  90 S5        30.00S
CINC-LUNKEN    CLOUDY    81  76  84 CALM      29.99R
HAMILTON       CLOUDY    79  71  76 NW3       30.00R
DAYTON         MOCLDY    78  71  79 W5        30.01R
WRIGHT-PAT AFB PTCLDY    82  72  69 W5        29.99R
DAYTON GENERAL PTCLDY    83  68  60 SW3       30.00R
WILMINGTON     CLOUDY    77  73  87 SW6       30.01R
$$

OHZ036-037-039>041-045>050-054>059-063>069-073>076-082>088-260300-
  CENTRAL AND SOUTHEAST OHIO

CITY           SKY/WX    TMP DP  RH WIND       PRES   REMARKS
COLUMBUS       CLOUDY    83  66  56 W6        29.97R
OSU AIRPORT    CLOUDY    79  69  71 W6        29.99R
BOLTON FIELD   CLOUDY    81  69  68 W3        30.00R
RICKENBACK AFB CLOUDY    79  68  69 SW3       29.98R
NEWARK         CLOUDY    76  71  85 CALM      29.98R
MARION         MOCLDY    79  69  71 W5        29.99R
LANCASTER      CLOUDY    76  73  91 CALM      29.99R
ZANESVILLE     CLOUDY    82  64  54 W3        29.98R
NEW PHILLY     PTCLDY    81  66  60 CALM      29.98R
$$




USA.gov is the U.S. government's official web portal to all federal, state and local government web resources and services.